Location: Columbia
(38.9520°N, 92.3340°W)
Time: 10:50:26
(UTC-06:00)

Meteor 1-4 Rocket - Visible Passes

Search period start: 27 February 2015 00:00
Search period end: 09 March 2015 01:00
Orbit: 464 x 527 km, 81.2° (Epoch: 26 February)

Date Brightness Start Highest point End Pass type
(mag) Time Alt. Az. Time Alt. Az. Time Alt. Az.
27 Feb 4.5 18:34:48 10° NE 18:35:50 11° ENE 18:36:47 10° E visible
27 Feb 4.0 20:08:14 10° NNW 20:11:28 36° W 20:11:28 36° W visible
28 Feb 3.1 19:46:42 10° NNW 19:50:12 56° W 19:52:07 24° SSW visible
01 Mar 2.4 19:25:16 10° N 19:28:51 87° W 19:32:27 10° S visible
02 Mar 2.5 19:03:55 10° N 19:07:27 60° E 19:11:02 10° SSE visible
03 Mar 3.0 18:42:39 10° N 18:46:02 39° ENE 18:49:28 10° SSE visible
04 Mar 5.8 19:57:42 10° NW 19:59:50 15° W 20:01:51 10° SW visible
05 Mar 5.3 19:35:41 10° NW 19:38:29 21° W 19:41:15 10° SW visible
06 Mar 4.6 19:13:54 10° NNW 19:17:07 31° W 19:20:22 10° SSW visible
07 Mar 3.8 18:52:15 10° NNW 18:55:44 47° W 18:59:16 10° S visible
08 Mar 2.9 19:30:43 10° NNW 19:34:20 73° W 19:37:59 10° S visible
